Regional Weather Roundup
Issued by NWS

Home | Current Version | Previous Version | Text Only | Print | Product List | Glossary On
Versions: 1 2 3 4 5 6 7 8 9 10 11 12 13 14 15 16 17 18 19 20 21 22 23 24 25 26 27 28 29 30 31 32 33 34 35 36 37 38 39 40 41 42 43 44 45 46 47 48 49 50
000
ASUS44 KOUN 041510
RWROK

WEATHER ROUNDUP FOR OKLAHOMA
NATIONAL WEATHER SERVICE NORMAN OK
1000 AM CDT TUE AUG 04 2015

NOTE: "FAIR" INDICATES FEW OR NO CLOUDS BELOW 12,000 FEET WITH NO
      SIGNIFICANT WEATHER AND/OR OBSTRUCTIONS TO VISIBILITY.

OKZ001>007-009>012-014-015-017-041600-
NORTHWEST OKLAHOMA AND THE PANHANDLE

CITY           SKY/WX    TMP DP  RH WIND       PRES   REMARKS
GAGE           MOSUNNY   74  67  78 SW8       29.97R
GUYMON         SUNNY     73  61  65 S5        30.00R
ENID/WOODRING  PTSUNNY   73  70  88 SE3       29.96S
$$

OKZ016-021>023-033>039-044-045-041600-
SOUTHWEST OKLAHOMA

CITY           SKY/WX    TMP DP  RH WIND       PRES   REMARKS
LAWTON/REGL    LGT RAIN  73  69  87 SE12      29.97F
LAWTON/FT SILL CLOUDY    73  71  92 SE12      29.95F
FREDERICK      PTSUNNY   74  71  91 E10       29.94S
CLINTON        MOSUNNY   77  70  79 S16       29.98R
HOBART         PTSUNNY   76  69  79 S17       29.96S
ALTUS AFB      MOSUNNY   75  68  79 SE14      29.95S
$$

OKZ018>020-024>031-041600-
CENTRAL OKLAHOMA

CITY           SKY/WX    TMP DP  RH WIND       PRES   REMARKS
OKLAHOMA CITY  CLOUDY    71  70  96 SE17      29.98F
OKC/WILEY POST CLOUDY    74  70  87 S20G25    29.95F
OKC/TINKER AFB CLOUDY    72  68  88 S14       29.97F
STILLWATER     LGT RAIN  73  69  87 S7        29.99R
GUTHRIE        CLOUDY    74  70  87 S10       29.96F
$$

OKZ008-013-054>072-041600-
NORTHEAST OKLAHOMA

CITY           SKY/WX    TMP DP  RH WIND       PRES   REMARKS
TULSA          CLOUDY    81  69  67 SW7       29.97F
TULSA/JONES    LGT RAIN  77  69  76 SW3       29.99
PONCA CITY     LGT RAIN  75  69  81 S5        29.98R
BARTLESVILLE   CLOUDY    79  72  79 SW7       29.99S
MUSKOGEE       CLOUDY    79  72  79 W6        30.02R
$$

OKZ032-040>043-046>053-073>077-041600-
SOUTH CENTRAL/SOUTHEAST OKLAHOMA

CITY           SKY/WX    TMP DP  RH WIND       PRES   REMARKS
ARDMORE/DWNTWN CLOUDY    72  70  94 E3        29.99S
MCALESTER      CLOUDY    81  68  64 W7        30.02S
$$




USA.gov is the U.S. government's official web portal to all federal, state and local government web resources and services.